Regional Weather Roundup
Issued by NWS New Orleans/Baton Rouge, LA

Home | Current Version | Previous Version | Graphics & Text | Print | Product List | Glossary On
Versions: 1 2 3 4 5 6 7 8 9 10 11 12 13 14 15 16 17 18 19 20 21 22 23 24 25 26 27 28 29 30 31 32 33 34 35 36 37 38 39 40 41 42 43 44 45 46 47 48 49 50
253
ASUS44 KLIX 281705
RWRLIX
NEW ORLEANS REGIONAL WEATHER ROUNDUP
NATIONAL WEATHER SERVICE NEW ORLEANS LA
1100 AM CST WED JAN 28 2015

NOTE: "FAIR" INDICATES FEW OR NO CLOUDS BELOW 12,000 FEET WITH NO
      SIGNIFICANT WEATHER AND/OR OBSTRUCTIONS TO VISIBILITY.
      SKY/WX - SKY CONDITION AND SIGNIFICANT WEATHER.
      TMP - AIR TEMPERATURE.     DP    - DEWPOINT TEMPERATURE.
      RH  - RELATIVE HUMIDITY.   PRES  - PRESSURE.
      HI  - HEAT INDEX.          WCI   - WIND CHILL INDEX.

*  THESE STATIONS ARE NOT NWS OR FAA STATIONS AND ARE NOT UNDER
   NWS QUALITY CONTROL.

LAZ038-040-048-061>063-065>067-069-281800-
SOUTHEAST LOUISIANA

CITY           SKY/WX    TMP DP  RH WIND       PRES   REMARKS
N.O. AUDUBON   NOT AVBL
N.O. INTL ARPT SUNNY     60  39  45 E9        30.29F
N.O. LAKEFRONT SUNNY     59  39  47 E16       30.29F
N.O. DOWNTOWN* NOT AVBL
SLIDELL        SUNNY     60  36  40 E7        30.29F
BATON ROUGE    SUNNY     62  37  39 SE6       30.29R
BOOTHVILLE     SUNNY     59  46  62 NE9       30.30F
BELLE CHASSE   SUNNY     61  39  44 E13       30.27F
BOGALUSA*        N/A     59  35  39 CALM      30.31F
GALLIANO*      SUNNY     63  45  52 MISG      30.28F
NEW ROADS*       N/A     60  38  43 E6        30.30R
GONZALES*        N/A     62  39  43 NE7       30.29R
HAMMOND*       SUNNY     61  34  36 CALM      30.31F
HOUMA*         SUNNY     63  45  51 E13       30.28S
PORT FOURCHON* SUNNY     63  50  63 E13G18    30.30S

$$

MSZ070-080>082-281800-
SOUTHERN MISSISSIPPI

CITY           SKY/WX    TMP DP  RH WIND       PRES   REMARKS
MCCOMB         SUNNY     57  37  47 SE5       30.29F
GULFPORT       SUNNY     58  33  39 NE8       30.30S
BILOXI         SUNNY     58  33  39 NE6       30.30R
PASCAGOULA     SUNNY     58  33  39 VRB6      30.31R
STENNIS ARPT*  SUNNY     59  30  33 E7        30.31S

$$

COASTAL OBSERVATIONS
LAKE AND NEARSHORE STATIONS

STATION/POSITION TIME  TEMP    WIND        PRES    WAVE
                       AIR SEA DIR/SP/G            HT/PER
                 (UTC) (F)     (DEG/KT/KT) (MB)    (FT/S)
PASCAGOULA       1700   56      20/  6/  8 1025.7
WAVELAND YACHT   1700   52     160/  6/  7 1025.4
GRAND ISLE       1700   60 59   90/ 11/ 17 1025.5
SOUTHWEST PASS   1700   58 46   60/ 14/ 15 1025.4
NEW CANAL        1700   58 54   80/  6/ 14 1025.6
SHELL BEACH      1700   56 54   70/  9/ 10 1025.8

OFFSHORE STATIONS

STATION/POSITION TIME  TEMP    WIND        PRES    WAVE
                       AIR SEA DIR/SP/G            HT/PER
                 (UTC) (F)     (DEG/KT/KT) (MB)    (FT/S)
64 S DAUPHIN ISL 1605   58 67   60/ 14/ 16 1025.8    3/ 5

$$




USA.gov is the U.S. government's official web portal to all federal, state and local government web resources and services.